www.pogodaiklimat.ru

Погода и климат >> Архив погоды >> Россия >> Краснодарский край >> Псебай


ПОГОДА в Псебае

  • Прогноз погоды в Псебае
  • Монитор погоды в Псебае

АРХИВ ПОГОДЫ в Псебае

Время (UTC), дата Ветер
(напр.,м/с)
 
Видим.   Явления Облачность Т
(С)
Тd
(С)
f
(%)
Тe
(С)
Тes
(С)
Комфортность P
(гПа)
Po
(гПа)
Тmin
(С)
Tmax
(С)
R
(мм)
R24
(мм)
S
(см)
09 15.08 С 3 20 км ясно +32.0 +11.1 28 +32 +45 жарко 1005.2 938.4
12 15.08 С 4 20 км ясно +33.4 +10.4 24 +33 +40 жарко 1003.4 937.0
15 15.08 С 3 20 км ясно +31.6 +12.1 30 +32 +33 жарко 1003.3 936.5 +33.7
18 15.08 Ю 2 10 км ясно +20.1 +15.6 75 +23 +23 комфорт 1007.1 937.6
21 15.08 Ю 1 10 км ясно +17.4 +14.2 81 +18 +18 1008.3 938.1
00 16.08 Ю 2 10 км ясно +16.6 +13.7 83 +17 +17 1009.3 938.8
03 16.08 ЮЗ 2 20 км 8/4 1000 м
[Cb calv Ac trans]
+17.7 +13.9 78 +18 +18 1009.5 939.3 +15.2
06 16.08 ЮЗ 2 20 км 10/8 1000 м
[Cb calv Ac trans Ci]
+24.7 +13.9 51 +27 +28 жарко 1007.2 938.8
09 16.08 З 2 20 км 10/4 1000 м
[Cb calv Ac trans Ci fib]
+32.2 +14.4 34 +34 +39 душно 1004.3 937.7
12 16.08 С 3 20 км гроза без осадков 9/9 1000 м
[Cb cap]
+29.0 +16.8 48 +33 +34 очень
душно
1005.2 937.9
15 16.08 З 2 20 км {гроза, ливн. осадки} 10/10 1000 м
[Cb calv]
+25.2 +19.5 71 +31 +31 очень
душно
1004.7 936.7 +33.1 0.0
18 16.08 ЮВ 2 10 км гроза без осадков {ливн. осадки} 10/10 1000 м
[Cb cap]
+21.7 +19.4 87 +27 +27 душно 1007.8 938.8
21 16.08 штиль 0 10 км зарница {гроза, ливн. осадки} 10/10 600 м
[Cb calv]
+20.2 +18.7 91 +23 +23 комфорт 1007.5 938.2
00 17.08 Ю 1 4000 м дымка {гроза, ливн. осадки} 10/10 300 м
[Cb calv]
+18.1 +16.9 93 +19 +19 1007.3 937.5
03 17.08 С 2 10 км 10/10 300 м
[Cb calv]
+18.5 +16.3 87 +20 +20 1009.2 939.3 +17.6 0.5
06 17.08 ЮВ 1 10 км гроза без осадков 10/10 300 м
[Cb cap]
+20.3 +16.2 77 +24 +24 комфорт 1009.4 939.9
09 17.08 ЮВ 2 20 км гроза без осадков 10/10 600 м
[Cb cap]
+22.1 +17.1 73 +27 +27 душно 1008.7 939.6
12 17.08 С 3 20 км {гроза, ливн. осадки} 10/10 600 м
[Cb calv]
+22.5 +18.4 78 +28 +28 душно 1009.0 940.1
15 17.08 штиль 0 20 км {ливн. осадки} 10/10 600 м
[Cb calv]
+20.7 +18.7 88 +24 +24 комфорт 1009.9 940.5 +23.5 3
18 17.08 штиль 0 10 км {ливн. осадки} 10/10 600 м
[Cb calv]
+19.7 +18.2 91 +22 +22 комфорт 1010.7 941.0
21 17.08 штиль 0 10 км 10/10 600 м
[Cb calv]
+18.5 +17.1 92 +19 +19 1010.3 940.4
00 18.08 В 2 10 км гроза без осадков {ливн. осадки} 10/10 300 м
[Cb cap]
+18.2 +16.9 92 +19 +19 1009.5 939.5
03 18.08 штиль 0
{24}
20 км в посл. час гроза {ливн. осадки} 10/10 300 м
[Cb calv]
+17.3 +16.1 93 +17 +17 1009.7 939.4 +17.0 34
06 18.08 Ю 1 4000 м слаб. ливневой дождь {гроза} 10/10 300 м
[Cb cap]
+17.9 +16.7 93 +19 +19 1010.1 940.0
09 18.08 СВ 1 20 км {ливн. осадки} 10/10 600 м
[Cb calv]
+19.7 +18.4 92 +23 +23 комфорт 1009.4 939.8
12 18.08 СЗ 1 20 км {ливн. осадки} 10/9 600 м
[Cb calv Ci ing]
+24.4 +18.1 68 +29 +30 душно 1008.4 939.9
15 18.08 С 2 20 км 10/9 600 м
[Cb calv Ci]
+23.3 +18.9 76 +30 +30 очень
душно
1009.5 940.8 +24.8 1
18 18.08 СВ 2 10 км 10/10 600 м
[Cb calv]
+21.1 +19.2 89 +26 +26 душно 1012.2 942.8
21 18.08 С 3 2000 м дымка 10/10 300 м
[Cb calv]
+20.0 +18.8 93 +24 +24 комфорт 1012.3 942.6
00 19.08 СВ 3 500 м туман ?/? +19.2 +18.0 93 +21 +21 комфорт 1013.4 943.4
03 19.08 С 2 4000 м дымка {туман} 10/10 300 м
[Cb calv]
+18.2 +17.1 93 +19 +19 1014.5 944.2 +18.2
06 19.08 штиль 0 10 км {туман} 10/10 300 м
[Cb calv]
+19.8 +17.9 89 +22 +22 комфорт 1015.0 945.0
09 19.08 С 6 20 км 10/8 600 м
[Cb calv Ci]
+23.3 +18.9 76 +30 +31 очень
душно
1014.1 945.0
12 19.08 С 4 20 км 10/9 1000 м
[Cb calv Ci]
+24.6 +19.7 74 +30 +30 очень
душно
1013.9 945.1
15 19.08 штиль 0 20 км 4/1 1000 м
[Sc Ci fib]
+27.0 +17.8 57 +31 +32 душно 1013.5 945.2 +27.3
18 19.08 Ю 1 10 км 6/0
[Ac trans Ci fib]
+19.5 +17.7 89 +23 +23 комфорт 1016.7 946.5
21 19.08 штиль 0 10 км 3/0
[Ci fib]
+17.2 +15.8 91 +17 +17 1017.3 946.5
00 20.08 Ю 1 10 км 3/0
[Ci fib]
+16.1 +14.9 93 +17 +17 1017.4 946.3
03 20.08 Ю 2 20 км 10/3 1000 м
[Sc Ci fib]
+15.9 +14.6 92 +16 +16 1018.3 947.0 +15.6
06 20.08 Ю 3 20 км 3/1 1000 м
[Cu med, cong Ci]
+23.6 +17.0 66 +27 +33 жарко 1016.2 947.0
09 20.08 С 4 20 км 6/4 1000 м
[Cu med, cong Ci]
+29.1 +16.5 47 +33 +39 очень
душно
1014.1 946.2
12 20.08 СВ 6
{10}
20 км в посл. час гроза 10/10 600 м
[Cb calv]
+29.0 +15.7 44 +32 +32 душно 1014.3 946.4
15 20.08 штиль 0 20 км 8/5 1000 м
[Cb calv Ci fib]
+27.3 +18.6 59 +32 +33 очень
душно
1013.8 945.6 +30.4
18 20.08 штиль 0 10 км гроза без осадков 10/10 600 м
[Cb cap]
+22.4 +17.9 76 +27 +27 душно 1016.7 947.2
21 20.08 ЮЗ 3 10 км {гроза} 9/9 1000 м
[Cb calv]
+21.4 +17.3 77 +25 +25 комфорт 1015.8 946.1
00 21.08 Ю 2 10 км {гроза} 10/3 1000 м
[Cb calv Ci ing]
+19.7 +16.7 83 +23 +23 комфорт 1015.1 945.1
03 21.08 ЮЗ 2 20 км 8/4 1000 м
[Cb calv Ci]
+18.4 +16.0 86 +20 +20 1015.3 944.9 +17.9
06 21.08 ЮЗ 2 20 км 10/4 1000 м
[Cb calv Ci]
+23.9 +16.7 64 +27 +31 жарко 1013.8 944.8
09 21.08 С 5 20 км 10/0
[Ci fib]
+29.7 +17.6 48 +34 +40 очень
душно
1010.6 943.1
12 21.08 С 4 20 км 1/1 1000 м
[Cu hum]
+31.9 +15.9 38 +35 +41 очень
душно
1008.6 941.7
15 21.08 С 1 20 км 8/3 1000 м
[Cb calv Ci]
+29.6 +14.6 40 +32 +32 душно 1008.7 941.2 +32.1
18 21.08 ЮЗ 2 10 км в посл. час гроза ясно +21.9 +17.7 77 +26 +26 душно 1010.3 941.1
21 21.08 ЮВ 2 10 км 3/0
[Ci]
+18.6 +16.8 89 +20 +20 1011.4 941.3
00 22.08 штиль 0 10 км 1/0
[Ci fib]
+17.4 +15.9 91 +17 +17 1011.7 941.3
03 22.08 штиль 0 20 км 8/8 1000 м
[Cb calv Ci fib]
+17.1 +15.7 91 +17 +17 1011.2 940.8 +16.8
06 22.08 штиль 0 20 км 10/9 1000 м
[Cb calv Ci fib]
+24.0 +17.4 67 +28 +29 душно 1010.0 941.3

 

Местоположение метеостанции Псебай (Краснодарский край, Россия): широта 44.13 долгота 40.78 высота над уровнем моря 621 м.

В архиве по умолчанию представлена погода в Псебае за последнюю неделю. Архивные данные за месяц целиком и за предыдущие месяцы, начиная с января 2011 года, Вы можете получить, выбрав интересующий диапазон дат из раскрывающегося списка и нажав кнопку "Ввод!".


*Определитесь, кто Вы:
робот инопланетянин человек

Внимание! Время в таблицах - всемирное. Для получения местного времени необходимо прибавить поправку, которая равна 3 ч.

Смотрите также архив погоды в соседних городах и на ближайших метеорологических станциях:

Погода в Гузерипле (Адыгея, Россия) (54 км)
Погода в Лабинске (Краснодарский край, Россия) (60 км)
Погода в Даховской (Адыгея, Россия) (60 км)
Погода на Кордоне Лаура (Краснодарский край, Россия) (61 км)
Погода в Отрадной (Краснодарский край, Россия) (63 км)
Погода в Шунтуке (Адыгея, Россия) (65 км)
Погода в Горная Карусель 1500 (Краснодарский край, Россия) (66 км)
Погода в Горная Карусель 1000 (Краснодарский край, Россия) (66 км)
Погода в Красной Поляне (Краснодарский край, Россия) (68 км)
Погода в Зеленчукской (Карачаево-Черкессия, Россия) (70 км)

Пояснения к столбцам:

Ветер - указаны скорость ветра в м/с - средняя за 10 мин, порывы в срок и между сроками (в фигурных скобках) и направление, откуда дует ветер: С - северный, СВ - северо-восточный, В - восточный, ЮВ - юго-восточный, Ю - южный, ЮЗ - юго-западный, З - западный, СЗ - северо-западный.
Видимость - горизонтальная дальность видимости в метрах или километрах. При видимости от 1 до 10 км при отсутствии осадков обычно наблюдается дымка, при ухудшении видимости до 1 км и менее - туман. В сухую погоду видимость может ухудшаться дымом, пылью или мглою.
Явления - указаны атмосферные явления, наблюдавшиеся в срок или в последний час перед сроком; фигурными скобками обозначены явления, наблюдавшиеся между сроками (за 1-3 часа до срока); квадратными скобками обозначены град или гололедные отложения с указанием их диаметра в мм.
Облачность - указаны через наклонную черту общая и нижняя облачность в баллах и высота нижней границы облаков в метрах; квадратными скобками обозначены формы облаков: Ci - перистые, Cs - перисто-слоистые, Cc - перисто-кучевые, Ac - высококучевые, As - высокослоистые, Sc - слоисто-кучевые, Ns - слоисто-дождевые, Cu - кучевые, Cb - кучево-дождевые. Подробнее классификацию облаков см. в Атласе облаков (PDF).
T - Температура воздуха - температура, измеренная на высоте 2 м над землей.
Td - Температура точки росы - температура, при понижении до которой содержащийся в воздухе водяной пар достигнет насыщения.
f - Относительная влажность воздуха - влажноcть воздуха, измеренная на высоте 2 м над землей.
Te - Эффективная температура - температура, которую ощущает одетый по сезону человек в тени. Характеристика душности погоды. При расчете учитывается влияние влажности воздуха и скорости ветра на теплоощущения человека.
Tes - Эффективная температура на солнце - температура, которую ощущает человек, с поправкой на солнечный нагрев. Характеристика знойности погоды. Зависит от высоты солнца над горизонтом, облачности и скорости ветра. Ночью, в пасмурную погоду, а также при ветре 12 м/с и более поправка равна нулю.
P - Атмосферное давление - приведенное к уровню моря атмосферное давление.
Po - Атмосферное давление - измеренное на уровне метеостанции атмосферное давление.
Tmin - Минимальная температура - минимум температуры воздуха на высоте 2 м над землей.
Tmax - Максимальная температура - максимум температуры воздуха на высоте 2 м над землей.
R - Количество осадков - Количество выпавших осадков за период времени, мм. При наведении курсора мыши на число - период времени, за который выпало указанное количество осадков.
R24 - Количество осадков - Количество выпавших осадков за 24 часа, мм.
S - Снежный покров - Высота снежного покрова, см. При наведении курсора мыши на число - состояние снежного покрова и степень покрытия местности в баллах.